Regional Weather Roundup
Issued by NWS

Home | Current Version | Previous Version | Graphics & Text | Print | Product List | Glossary On
Versions: 1 2 3 4 5 6 7 8 9 10 11 12 13 14 15 16 17 18 19 20 21 22 23 24 25 26 27 28 29 30 31 32 33 34 35 36 37 38 39 40 41 42 43 44 45 46 47 48 49 50
000
ASUS43 KOAX 281602
RWRNE

WEATHER ROUNDUP FOR NEBRASKA
NATIONAL WEATHER SERVICE OMAHA NE
1100 AM CDT FRI AUG 28 2015

NOTES: SATELLITE DATA IS BEING USED TO AUGMENT CLOUD COVER ABOVE
       12000 FEET.
       "FAIR" INDICATES FEW OR NO CLOUDS BELOW 12,000 FEET WITH NO
       SIGNIFICANT WEATHER AND/OR OBSTRUCTIONS TO VISIBILITY.

  * THESE STATIONS DO NOT REPORT WEATHER SUCH AS RAIN...SNOW OR FOG.

NEZ001>004-019>022-054>056-281700-
NEBRASKA PANHANDLE

CITY           SKY/WX    TMP DP  RH WIND       PRES   REMARKS
SCOTTSBLUFF    SUNNY     73  52  47 W14       30.13R
ALLIANCE       SUNNY     77  51  40 N13       30.09R
CHADRON        SUNNY     77  51  40 NW10      30.08R HAZE
SIDNEY         SUNNY     78  48  34 N18G26    30.14R
$$

NEZ057>060-069>072-079>082-281700-
SOUTHWEST NEBRASKA

CITY           SKY/WX    TMP DP  RH WIND       PRES   REMARKS
NORTH PLATTE   CLOUDY    74  63  68 N12G18    30.01R
IMPERIAL       SUNNY     80  54  40 N12G21    30.04R
LEXINGTON      CLOUDY    74  65  74 N12       29.97R
MCCOOK         SUNNY     79  60  52 N16       29.99R
OGALLALA       SUNNY     77  55  46 NW10      30.05R
$$

NEZ005>010-023>029-035>040-094-281700-
NORTH CENTRAL NEBRASKA

CITY           SKY/WX    TMP DP  RH WIND       PRES   REMARKS
AINSWORTH      CLOUDY    69  65  89 N15       30.00R
BROKEN BOW     CLOUDY    72  65  78 N13G21    29.96R
O`NEILL        CLOUDY    66  65  98 N9        29.95R FOG
ORD            CLOUDY    68  63  84 N9G21     29.93R
$$

NEZ041-046>049-061>064-073>077-083>087-281700-
SOUTH CENTRAL NEBRASKA

CITY           SKY/WX    TMP DP  RH WIND       PRES   REMARKS
GRAND ISLAND   CLOUDY    73  64  73 N10       29.92R
AURORA         PTSUNNY   73  67  83 NW7       29.91R
HASTINGS       LGT RAIN  70  67  90 NW8       29.93R FOG
HEBRON         MOSUNNY   75  66  71 NW8       29.89R
HOLDREGE       CLOUDY    70  64  79 NW7       29.96R
KEARNEY *      CLOUDY    72  63  73 NW8       29.94R
YORK           CLOUDY    72  66  83 N9G17     29.90R
$$

NEZ011>018-030>034-042>045-281700-
NORTHEAST NEBRASKA

CITY           SKY/WX    TMP DP  RH WIND       PRES   REMARKS
NORFOLK        CLOUDY    69  65  86 N15       29.87R
ALBION         CLOUDY    69  63  81 N12       29.90R
BLAIR          CLOUDY    71  66  85 S8        29.84R
COLUMBUS *     CLOUDY    72  63  73 N5        29.87R
FREMONT        CLOUDY    73  70  91 W6        29.84R FOG
TEKAMAH        LGT RAIN  71  69  93 CALM      29.83R
WAYNE          CLOUDY    66  65  95 N12       29.87R
$$

NEZ050>053-065>068-078-088>093-281700-
SOUTHEAST NEBRASKA

CITY           SKY/WX    TMP DP  RH WIND       PRES   REMARKS
LINCOLN        CLOUDY    75  68  78 W10       29.86R
OMAHA EPPLEY   CLOUDY    71  67  87 S12       29.83S
BEATRICE       CLOUDY    76  67  75 SW13      29.87R
FALLS CITY     PTSUNNY   74  67  78 S10       29.89R
NEBRASKA CITY  PTSUNNY   77  67  70 S18       29.86S
PLATTSMOUTH    CLOUDY    74  67  77 S15G21    29.84S
$$

NEZ044-045-051>053-067-281700-
OMAHA AREA

CITY           SKY/WX    TMP DP  RH WIND       PRES   REMARKS
OMAHA EPPLEY   CLOUDY    71  67  87 S12       29.83S
BLAIR          CLOUDY    71  66  85 S8        29.84R
FREMONT        CLOUDY    73  70  91 W6        29.84R FOG
MILLARD        CLOUDY    73  68  83 S3        29.83R
OFFUTT AFB     PTSUNNY   74  68  81 S8        29.82S
PLATTSMOUTH    CLOUDY    74  67  77 S15G21    29.84S
WAHOO          CLOUDY    73  69  89 W13       29.84R
$$



USA.gov is the U.S. government's official web portal to all federal, state and local government web resources and services.